QPF
0.05 0.04 0.07 0.06 0.05 0.04 0.05 0.05 0.04 0.03 0.03 0.03 0.01 0.02 0.02 0.02 0.02 0.03 0.03 0.04 0.03 0.02 0.01 0.01 0.02 0.01 0.01 0.01 0.01 0.01 0.02 0.02 0.02 0.02 0.02 0.03 0.03 0.03 0.03 0.03 0.02 0.02 0.02
0.03 0.03 0.04 0.03 0.03 0.03 0.03 0.05 0.04 0.02 0.01 0.02 0.01 0.01 0.02 0.02 0.02 0.03 0.03 0.05 0.03 0.02 0.01 0.01 0.02 0.01 0.01 0.01 0.01 0.01 0.02 0.03 0.03 0.03 0.03 0.04 0.03 0.03 0.04 0.04 0.03 0.02 0.02
0.03 0.03 0.03 0.02 0.02 0.02 0.03 0.04 0.03 0.02 0.01 0.01 0.02 0.02 0.02 0.02 0.02 0.02 0.03 0.04 0.03 0.02 0.02 0.02 0.02 0.01 0.01 0.01 0.01 0.01 0.01 0.03 0.03 0.03 0.03 0.01 0.02 0.03 0.03 0.04 0.04 0.03 0.03
0.02 0.03 0.03 0.03 0.02 0.02 0.03 0.03 0.02 0.02 0.02 0.01 0.01 0.03 0.03 0.02 0.02 0.02 0.03 0.02 0.02 0.02 0.02 0.02 0.01 0.01 0.00 0.01 0.01 0.01 0.02 0.04 0.04 0.03 0.01 0.01 0.01 0.04 0.03 0.04 0.05 0.04 0.04
0.02 0.02 0.04 0.04 0.03 0.04 0.04 0.03 0.01 0.02 0.02 0.02 0.02 0.03 0.02 0.02 0.03 0.03 0.03 0.03 0.02 0.02 0.01 0.01 0.01 0.01 0.01 0.02 0.02 0.02 0.04 0.06 0.05 0.02 0.01 0.02 0.03 0.05 0.05 0.04 0.04 0.03 0.03
0.01 0.02 0.03 0.03 0.02 0.02 0.04 0.03 0.02 0.03 0.03 0.03 0.03 0.03 0.02 0.03 0.04 0.04 0.04 0.03 0.02 0.01 0.01 0.02 0.01 0.01 0.01 0.02 0.02 0.02 0.04 0.05 0.03 0.01 0.00 0.01 0.04 0.05 0.04 0.04 0.04 0.03 0.02
0.01 0.01 0.02 0.04 0.02 0.02 0.03 0.02 0.02 0.03 0.03 0.04 0.04 0.03 0.03 0.03 0.04 0.04 0.03 0.03 0.02 0.01 0.01 0.02 0.02 0.01 0.01 0.02 0.02 0.03 0.04 0.05 0.02 0.01 0.01 0.02 0.03 0.05 0.03 0.03 0.05 0.04 0.03
0.01 0.01 0.02 0.03 0.02 0.02 0.03 0.02 0.02 0.02 0.03 0.04 0.04 0.04 0.04 0.03 0.04 0.04 0.03 0.03 0.02 0.01 0.01 0.02 0.02 0.02 0.02 0.02 0.02 0.03 0.05 0.03 0.02 0.01 0.01 0.01 0.05 0.05 0.04 0.04 0.06 0.03 0.03
0.01 0.01 0.02 0.02 0.02 0.03 0.03 0.02 0.03 0.02 0.03 0.04 0.03 0.03 0.03 0.04 0.04 0.04 0.04 0.03 0.02 0.01 0.01 0.01 0.02 0.02 0.02 0.02 0.02 0.03 0.03 0.02 0.01 0.02 0.01 0.03 0.07 0.06 0.04 0.04 0.04 0.03 0.04
0.01 0.02 0.02 0.01 0.02 0.02 0.02 0.02 0.02 0.02 0.03 0.03 0.04 0.03 0.03 0.04 0.04 0.04 0.04 0.04 0.02 0.01 0.01 0.01 0.02 0.02 0.02 0.03 0.02 0.02 0.02 0.01 0.01 0.01 0.02 0.06 0.08 0.06 0.04 0.03 0.03 0.03 0.03
0.02 0.02 0.02 0.02 0.01 0.02 0.02 0.02 0.02 0.02 0.02 0.03 0.03 0.04 0.04 0.05 0.05 0.04 0.04 0.04 0.02 0.01 0.01 0.01 0.02 0.03 0.03 0.03 0.03 0.03 0.01 0.01 0.01 0.01 0.02 0.06 0.09 0.08 0.07 0.04 0.04 0.05 0.03
0.04 0.03 0.03 0.03 0.03 0.02 0.02 0.02 0.02 0.01 0.01 0.02 0.02 0.03 0.04 0.07 0.07 0.04 0.03 0.03 0.03 0.03 0.02 0.02 0.03 0.02 0.01 0.01 0.02 0.03 0.01 0.01 0.02 0.01 0.03 0.07 0.07 0.07 0.07 0.05 0.05 0.05 0.03
0.03 0.03 0.04 0.06 0.04 0.03 0.02 0.03 0.02 0.02 0.01 0.02 0.03 0.02 0.03 0.03 0.03 0.01 0.01 0.01 0.02 0.02 0.01 0.01 0.01 0.01 0.01 0.01 0.01 0.01 0.01 0.01 0.01 0.01 0.03 0.06 0.07 0.07 0.05 0.05 0.04 0.02 0.02
0.04 0.03 0.04 0.07 0.07 0.04 0.03 0.03 0.03 0.03 0.03 0.03 0.04 0.03 0.02 0.02 0.02 0.01 0.01 0.02 0.02 0.02 0.01 0.01 0.00 0.01 0.02 0.02 0.01 0.01 0.01 0.01 0.01 0.00 0.01 0.04 0.05 0.08 0.08 0.08 0.05 0.03 0.02
0.03 0.03 0.04 0.04 0.05 0.04 0.03 0.03 0.03 0.04 0.05 0.03 0.03 0.03 0.03 0.03 0.04 0.04 0.03 0.02 0.03 0.02 0.03 0.02 0.01 0.01 0.02 0.02 0.01 0.01 0.01 0.01 0.01 0.00 0.00 0.02 0.04 0.08 0.09 0.11 0.10 0.06 0.04
0.03 0.04 0.03 0.02 0.03 0.03 0.03 0.03 0.03 0.04 0.04 0.03 0.02 0.02 0.03 0.03 0.04 0.04 0.03 0.03 0.03 0.02 0.01 0.02 0.02 0.02 0.02 0.02 0.01 0.00 0.00 0.00 0.00 0.00 0.00 0.01 0.03 0.05 0.07 0.07 0.07 0.06 0.07
0.03 0.03 0.02 0.03 0.03 0.03 0.03 0.02 0.04 0.05 0.03 0.02 0.02 0.02 0.02 0.04 0.06 0.05 0.03 0.02 0.03 0.02 0.01 0.02 0.02 0.01 0.02 0.02 0.02 0.01 0.01 0.01 0.01 0.00 0.00 0.00 0.01 0.02 0.03 0.04 0.06 0.07 0.06
0.02 0.02 0.02 0.02 0.03 0.03 0.03 0.02 0.04 0.05 0.03 0.01 0.01 0.01 0.02 0.02 0.03 0.04 0.03 0.02 0.02 0.02 0.01 0.01 0.02 0.02 0.02 0.02 0.01 0.01 0.01 0.01 0.01 0.01 0.00 0.01 0.00 0.00 0.01 0.02 0.03 0.05 0.05
0.02 0.03 0.03 0.03 0.03 0.04 0.04 0.03 0.03 0.03 0.02 0.01 0.01 0.01 0.02 0.03 0.03 0.03 0.02 0.02 0.02 0.02 0.01 0.01 0.01 0.02 0.02 0.02 0.01 0.01 0.01 0.01 0.01 0.01 0.01 0.01 0.00 0.00 0.00 0.00 0.01 0.03 0.04
0.02 0.03 0.04 0.04 0.04 0.05 0.04 0.04 0.03 0.02 0.02 0.01 0.01 0.01 0.02 0.03 0.03 0.04 0.03 0.02 0.01 0.01 0.02 0.03 0.03 0.02 0.01 0.01 0.01 0.01 0.02 0.02 0.01 0.01 0.01 0.01 0.01 0.00 0.00 0.00 0.00 0.01 0.02
0.01 0.01 0.03 0.03 0.04 0.05 0.04 0.03 0.03 0.03 0.02 0.01 0.01 0.02 0.02 0.03 0.03 0.02 0.02 0.02 0.02 0.02 0.02 0.02 0.01 0.01 0.01 0.01 0.01 0.01 0.01 0.01 0.01 0.00 0.01 0.01 0.00 0.00 0.01 0.00 0.00 0.00 0.01
0.00 0.01 0.01 0.02 0.03 0.04 0.04 0.03 0.04 0.03 0.01 0.01 0.01 0.02 0.03 0.04 0.02 0.02 0.02 0.02 0.03 0.02 0.01 0.01 0.01 0.01 0.01 0.01 0.01 0.01 0.01 0.00 0.01 0.01 0.01 0.01 0.01 0.01 0.01 0.00 0.00 0.00 0.00
0.00 0.00 0.01 0.01 0.03 0.04 0.04 0.05 0.04 0.02 0.02 0.01 0.01 0.01 0.03 0.04 0.03 0.03 0.04 0.03 0.03 0.03 0.02 0.02 0.02 0.02 0.02 0.02 0.02 0.01 0.01 0.01 0.00 0.01 0.01 0.01 0.00 0.00 0.00 0.01 0.01 0.00 0.01
0.01 0.01 0.01 0.01 0.02 0.03 0.04 0.05 0.04 0.02 0.02 0.01 0.01 0.01 0.02 0.03 0.03 0.03 0.04 0.03 0.03 0.03 0.01 0.01 0.01 0.01 0.02 0.02 0.01 0.01 0.02 0.01 0.00 0.00 0.00 0.01 0.01 0.01 0.00 0.00 0.01 0.01 0.00
0.03 0.02 0.02 0.02 0.03 0.04 0.05 0.05 0.04 0.04 0.04 0.03 0.02 0.02 0.03 0.03 0.02 0.02 0.03 0.03 0.03 0.03 0.01 0.01 0.01 0.01 0.01 0.01 0.01 0.01 0.01 0.00 0.00 0.00 0.00 0.01 0.01 0.01 0.00 0.01 0.01 0.00 0.00
0.03 0.03 0.03 0.04 0.04 0.05 0.05 0.05 0.05 0.05 0.06 0.05 0.04 0.04 0.04 0.04 0.04 0.02 0.02 0.02 0.03 0.03 0.02 0.01 0.01 0.01 0.01 0.02 0.01 0.01 0.01 0.01 0.01 0.01 0.01 0.00 0.00 0.01 0.00 0.01 0.01 0.01 0.01
MSLP
1013.41 1012.83 1012.41 1012.21 1012.22 1012.41 1012.69 1012.96 1013.16 1013.25 1013.24 1013.16 1013.08 1013.04 1013.08 1013.18 1013.31 1013.43 1013.47 1013.41 1013.25 1013.02 1012.77 1012.57 1012.46 1012.46 1012.58 1012.78 1013.01 1013.23 1013.41 1013.53 1013.59 1013.63 1013.66 1013.70 1013.76 1013.83 1013.90 1013.95 1013.97 1013.96 1013.93
1013.48 1012.92 1012.52 1012.36 1012.41 1012.63 1012.92 1013.20 1013.40 1013.49 1013.47 1013.41 1013.35 1013.34 1013.41 1013.54 1013.70 1013.84 1013.90 1013.85 1013.70 1013.48 1013.24 1013.03 1012.91 1012.89 1012.97 1013.12 1013.30 1013.47 1013.60 1013.70 1013.76 1013.81 1013.85 1013.92 1014.00 1014.09 1014.16 1014.21 1014.22 1014.20 1014.16
1013.51 1012.97 1012.63 1012.52 1012.63 1012.88 1013.20 1013.49 1013.69 1013.78 1013.77 1013.71 1013.66 1013.68 1013.76 1013.91 1014.08 1014.22 1014.28 1014.24 1014.10 1013.89 1013.66 1013.46 1013.34 1013.30 1013.34 1013.45 1013.57 1013.69 1013.79 1013.87 1013.93 1013.99 1014.06 1014.16 1014.27 1014.37 1014.45 1014.49 1014.50 1014.47 1014.43
1013.53 1013.04 1012.75 1012.71 1012.88 1013.19 1013.54 1013.85 1014.05 1014.13 1014.12 1014.06 1014.02 1014.03 1014.12 1014.26 1014.42 1014.55 1014.61 1014.56 1014.43 1014.24 1014.03 1013.85 1013.73 1013.68 1013.70 1013.77 1013.85 1013.94 1014.01 1014.07 1014.13 1014.21 1014.32 1014.44 1014.57 1014.69 1014.77 1014.81 1014.81 1014.77 1014.73
1013.58 1013.14 1012.93 1012.96 1013.20 1013.55 1013.92 1014.24 1014.44 1014.52 1014.50 1014.43 1014.38 1014.39 1014.46 1014.59 1014.72 1014.83 1014.87 1014.82 1014.69 1014.52 1014.34 1014.18 1014.08 1014.05 1014.06 1014.11 1014.17 1014.23 1014.28 1014.34 1014.41 1014.51 1014.64 1014.78 1014.93 1015.04 1015.12 1015.15 1015.13 1015.09 1015.06
1013.70 1013.33 1013.18 1013.29 1013.57 1013.95 1014.34 1014.65 1014.84 1014.90 1014.87 1014.80 1014.74 1014.73 1014.79 1014.89 1015.00 1015.07 1015.08 1015.02 1014.91 1014.76 1014.61 1014.49 1014.43 1014.41 1014.44 1014.49 1014.53 1014.58 1014.63 1014.69 1014.77 1014.88 1015.02 1015.17 1015.32 1015.43 1015.49 1015.50 1015.47 1015.42 1015.37
1013.93 1013.61 1013.53 1013.68 1013.99 1014.38 1014.76 1015.05 1015.21 1015.25 1015.21 1015.13 1015.07 1015.06 1015.10 1015.18 1015.25 1015.30 1015.29 1015.22 1015.11 1014.98 1014.86 1014.79 1014.77 1014.79 1014.84 1014.89 1014.95 1014.99 1015.04 1015.09 1015.18 1015.30 1015.44 1015.59 1015.73 1015.82 1015.86 1015.85 1015.79 1015.73 1015.68
1014.27 1014.00 1013.96 1014.14 1014.46 1014.83 1015.17 1015.42 1015.55 1015.57 1015.51 1015.44 1015.38 1015.37 1015.41 1015.47 1015.52 1015.54 1015.51 1015.42 1015.31 1015.20 1015.12 1015.09 1015.10 1015.16 1015.24 1015.32 1015.39 1015.44 1015.48 1015.54 1015.62 1015.73 1015.87 1016.01 1016.13 1016.20 1016.22 1016.18 1016.11 1016.03 1015.97
1014.71 1014.49 1014.48 1014.66 1014.96 1015.29 1015.57 1015.77 1015.85 1015.84 1015.78 1015.71 1015.68 1015.68 1015.72 1015.77 1015.81 1015.80 1015.74 1015.64 1015.53 1015.43 1015.38 1015.38 1015.43 1015.53 1015.64 1015.74 1015.82 1015.88 1015.93 1015.98 1016.05 1016.15 1016.27 1016.40 1016.50 1016.55 1016.55 1016.50 1016.42 1016.33 1016.26
1015.25 1015.06 1015.07 1015.24 1015.50 1015.77 1015.98 1016.11 1016.14 1016.10 1016.04 1015.98 1015.96 1015.99 1016.04 1016.09 1016.10 1016.07 1015.99 1015.88 1015.75 1015.66 1015.62 1015.65 1015.74 1015.86 1016.00 1016.12 1016.21 1016.28 1016.33 1016.37 1016.44 1016.52 1016.63 1016.74 1016.83 1016.88 1016.87 1016.82 1016.74 1016.65 1016.59
1015.83 1015.69 1015.72 1015.87 1016.07 1016.27 1016.40 1016.46 1016.44 1016.37 1016.30 1016.25 1016.25 1016.29 1016.34 1016.38 1016.39 1016.33 1016.23 1016.10 1015.97 1015.88 1015.85 1015.89 1016.00 1016.15 1016.30 1016.44 1016.55 1016.62 1016.67 1016.71 1016.77 1016.84 1016.94 1017.04 1017.12 1017.18 1017.19 1017.16 1017.09 1017.02 1016.97
1016.45 1016.36 1016.39 1016.52 1016.67 1016.79 1016.85 1016.84 1016.77 1016.67 1016.59 1016.53 1016.53 1016.57 1016.61 1016.65 1016.63 1016.56 1016.43 1016.29 1016.15 1016.07 1016.05 1016.10 1016.22 1016.39 1016.56 1016.71 1016.83 1016.91 1016.96 1017.00 1017.05 1017.12 1017.21 1017.31 1017.40 1017.47 1017.51 1017.51 1017.48 1017.44 1017.41
1017.07 1017.03 1017.08 1017.18 1017.28 1017.34 1017.33 1017.26 1017.14 1017.00 1016.89 1016.82 1016.80 1016.81 1016.84 1016.84 1016.80 1016.71 1016.57 1016.43 1016.30 1016.22 1016.22 1016.29 1016.42 1016.60 1016.79 1016.95 1017.08 1017.17 1017.23 1017.28 1017.33 1017.40 1017.48 1017.59 1017.69 1017.78 1017.85 1017.89 1017.90 1017.90 1017.89
1017.67 1017.67 1017.73 1017.82 1017.88 1017.88 1017.82 1017.69 1017.52 1017.35 1017.20 1017.09 1017.03 1017.00 1016.98 1016.95 1016.88 1016.78 1016.65 1016.51 1016.41 1016.35 1016.37 1016.47 1016.63 1016.82 1017.02 1017.20 1017.34 1017.45 1017.53 1017.58 1017.64 1017.71 1017.80 1017.91 1018.02 1018.12 1018.21 1018.29 1018.33 1018.36 1018.37
1018.22 1018.26 1018.33 1018.40 1018.42 1018.39 1018.28 1018.11 1017.90 1017.69 1017.49 1017.33 1017.21 1017.12 1017.05 1016.97 1016.88 1016.77 1016.66 1016.56 1016.49 1016.49 1016.55 1016.68 1016.86 1017.08 1017.29 1017.49 1017.66 1017.79 1017.89 1017.97 1018.05 1018.12 1018.21 1018.31 1018.41 1018.52 1018.62 1018.70 1018.76 1018.80 1018.83
1018.72 1018.77 1018.83 1018.87 1018.87 1018.81 1018.68 1018.48 1018.25 1018.00 1017.76 1017.54 1017.35 1017.19 1017.05 1016.93 1016.82 1016.72 1016.64 1016.59 1016.59 1016.65 1016.77 1016.94 1017.16 1017.40 1017.64 1017.87 1018.07 1018.23 1018.37 1018.48 1018.57 1018.66 1018.75 1018.84 1018.92 1019.00 1019.08 1019.14 1019.20 1019.23 1019.25
1019.15 1019.18 1019.22 1019.23 1019.20 1019.12 1018.98 1018.78 1018.54 1018.27 1017.98 1017.71 1017.45 1017.22 1017.03 1016.87 1016.74 1016.66 1016.63 1016.66 1016.73 1016.87 1017.05 1017.27 1017.53 1017.80 1018.07 1018.32 1018.56 1018.77 1018.95 1019.11 1019.24 1019.35 1019.44 1019.50 1019.56 1019.59 1019.62 1019.64 1019.66 1019.66 1019.65
1019.51 1019.49 1019.48 1019.45 1019.40 1019.31 1019.18 1018.99 1018.76 1018.49 1018.19 1017.87 1017.56 1017.27 1017.03 1016.84 1016.72 1016.67 1016.70 1016.79 1016.95 1017.16 1017.40 1017.67 1017.96 1018.26 1018.55 1018.84 1019.12 1019.38 1019.62 1019.84 1020.02 1020.16 1020.26 1020.31 1020.33 1020.31 1020.28 1020.23 1020.18 1020.13 1020.08
1019.79 1019.71 1019.63 1019.56 1019.48 1019.40 1019.28 1019.13 1018.94 1018.69 1018.39 1018.06 1017.72 1017.40 1017.12 1016.92 1016.81 1016.79 1016.87 1017.03 1017.25 1017.53 1017.82 1018.13 1018.44 1018.75 1019.06 1019.38 1019.70 1020.02 1020.33 1020.62 1020.86 1021.05 1021.17 1021.22 1021.21 1021.15 1021.05 1020.94 1020.82 1020.71 1020.60
1020.01 1019.85 1019.70 1019.57 1019.48 1019.40 1019.32 1019.23 1019.09 1018.89 1018.63 1018.32 1017.97 1017.64 1017.35 1017.15 1017.05 1017.06 1017.18 1017.39 1017.67 1017.97 1018.29 1018.61 1018.93 1019.24 1019.55 1019.89 1020.25 1020.62 1021.01 1021.37 1021.69 1021.94 1022.11 1022.19 1022.17 1022.09 1021.94 1021.77 1021.59 1021.42 1021.26
1020.17 1019.93 1019.71 1019.53 1019.42 1019.36 1019.33 1019.31 1019.25 1019.13 1018.93 1018.66 1018.35 1018.03 1017.76 1017.56 1017.47 1017.50 1017.65 1017.89 1018.18 1018.49 1018.81 1019.11 1019.40 1019.69 1019.99 1020.33 1020.71 1021.13 1021.58 1022.02 1022.43 1022.77 1023.00 1023.13 1023.14 1023.06 1022.91 1022.71 1022.49 1022.27 1022.06
1020.29 1019.98 1019.69 1019.48 1019.36 1019.32 1019.35 1019.40 1019.44 1019.41 1019.30 1019.10 1018.85 1018.58 1018.33 1018.16 1018.08 1018.13 1018.28 1018.51 1018.79 1019.08 1019.36 1019.62 1019.86 1020.10 1020.37 1020.69 1021.08 1021.52 1022.02 1022.53 1023.01 1023.43 1023.75 1023.96 1024.04 1024.00 1023.87 1023.68 1023.45 1023.21 1022.98
1020.39 1020.02 1019.69 1019.45 1019.33 1019.32 1019.40 1019.53 1019.66 1019.74 1019.73 1019.63 1019.46 1019.25 1019.05 1018.91 1018.85 1018.89 1019.03 1019.24 1019.48 1019.72 1019.95 1020.14 1020.32 1020.49 1020.71 1020.99 1021.34 1021.79 1022.30 1022.85 1023.40 1023.89 1024.30 1024.60 1024.77 1024.82 1024.76 1024.61 1024.42 1024.19 1023.96
1020.48 1020.08 1019.73 1019.48 1019.35 1019.37 1019.51 1019.71 1019.93 1020.11 1020.21 1020.22 1020.14 1020.01 1019.87 1019.76 1019.72 1019.76 1019.88 1020.04 1020.24 1020.42 1020.57 1020.70 1020.80 1020.90 1021.05 1021.26 1021.57 1021.97 1022.46 1023.02 1023.59 1024.14 1024.63 1025.02 1025.29 1025.45 1025.49 1025.43 1025.29 1025.11 1024.89
1020.59 1020.19 1019.83 1019.57 1019.46 1019.50 1019.67 1019.93 1020.23 1020.50 1020.70 1020.81 1020.83 1020.79 1020.71 1020.65 1020.63 1020.67 1020.77 1020.90 1021.04 1021.17 1021.26 1021.32 1021.35 1021.38 1021.45 1021.58 1021.81 1022.15 1022.58 1023.10 1023.66 1024.23 1024.77 1025.24 1025.61 1025.88 1026.03 1026.08 1026.04 1025.91 1025.73
1020.73 1020.34 1020.00 1019.75 1019.64 1019.70 1019.90 1020.20 1020.55 1020.90 1021.18 1021.38 1021.49 1021.53 1021.53 1021.52 1021.53 1021.58 1021.66 1021.77 1021.87 1021.96 1022.01 1022.02 1022.00 1021.97 1021.97 1022.03 1022.17 1022.41 1022.75 1023.19 1023.69 1024.24 1024.80 1025.32 1025.78 1026.15 1026.42 1026.59 1026.64 1026.59 1026.45
Thickness
5769 5772 5773 5773 5773 5773 5773 5773 5773 5773 5773 5772 5772 5772 5771 5771 5771 5771 5770 5770 5770 5769 5769 5769 5768 5768 5768 5767 5766 5766 5765 5764 5764 5764 5763 5763 5762 5762 5761 5761 5761 5761 5761
5773 5773 5773 5773 5773 5773 5773 5773 5773 5772 5772 5771 5771 5771 5770 5770 5770 5769 5769 5769 5768 5768 5767 5767 5766 5766 5766 5765 5765 5764 5763 5763 5762 5761 5761 5760 5760 5759 5759 5759 5759 5759 5759
5773 5773 5772 5772 5772 5772 5772 5772 5772 5772 5771 5770 5770 5769 5769 5768 5768 5768 5767 5767 5767 5766 5766 5765 5765 5764 5764 5763 5763 5762 5762 5761 5760 5759 5758 5758 5757 5757 5757 5756 5757 5757 5756
5773 5772 5771 5771 5771 5771 5771 5771 5771 5771 5770 5769 5768 5768 5767 5767 5766 5766 5766 5765 5765 5764 5764 5763 5763 5762 5762 5762 5761 5760 5760 5759 5758 5757 5756 5755 5755 5755 5754 5754 5754 5754 5754
5772 5771 5771 5770 5770 5770 5770 5770 5770 5769 5768 5768 5767 5766 5766 5765 5765 5764 5764 5763 5763 5762 5762 5762 5761 5761 5760 5759 5759 5758 5757 5756 5755 5754 5753 5753 5752 5752 5752 5751 5751 5751 5751
5771 5770 5770 5769 5769 5769 5768 5768 5768 5767 5766 5766 5765 5764 5764 5763 5762 5762 5761 5761 5760 5760 5760 5759 5759 5759 5758 5757 5756 5755 5754 5753 5752 5751 5750 5749 5749 5749 5749 5749 5748 5748 5748
5769 5769 5768 5768 5768 5767 5767 5766 5766 5765 5765 5764 5763 5762 5762 5761 5760 5759 5759 5758 5758 5758 5757 5757 5757 5756 5755 5754 5753 5752 5751 5750 5748 5747 5746 5746 5746 5746 5746 5746 5745 5745 5744
5769 5768 5767 5766 5766 5765 5765 5765 5764 5763 5762 5762 5761 5760 5759 5758 5758 5757 5756 5756 5756 5755 5755 5754 5754 5754 5753 5752 5750 5749 5747 5747 5745 5743 5743 5743 5743 5743 5743 5742 5742 5741 5741
5767 5766 5765 5765 5764 5763 5763 5763 5762 5761 5760 5759 5758 5758 5757 5756 5755 5754 5754 5753 5753 5752 5752 5751 5751 5750 5749 5748 5747 5746 5744 5743 5742 5740 5740 5740 5740 5740 5739 5739 5738 5738 5738
5764 5763 5763 5762 5762 5761 5760 5760 5760 5759 5758 5757 5756 5755 5754 5754 5753 5752 5751 5750 5750 5750 5749 5748 5747 5747 5746 5745 5743 5742 5741 5740 5738 5737 5736 5736 5737 5736 5736 5735 5735 5734 5734
5759 5759 5760 5759 5759 5759 5758 5757 5756 5756 5755 5754 5753 5752 5751 5751 5750 5749 5749 5748 5747 5747 5746 5745 5744 5743 5742 5741 5740 5738 5737 5736 5735 5734 5733 5733 5733 5733 5732 5731 5731 5731 5730
5755 5756 5757 5757 5757 5756 5756 5755 5754 5752 5752 5751 5750 5750 5749 5748 5747 5747 5746 5745 5744 5744 5743 5742 5741 5740 5738 5737 5735 5734 5733 5732 5731 5730 5730 5730 5730 5730 5729 5728 5727 5727 5726
5755 5756 5756 5756 5755 5754 5753 5752 5751 5750 5749 5748 5748 5747 5746 5745 5744 5743 5743 5742 5741 5740 5739 5738 5737 5736 5734 5733 5731 5730 5729 5727 5727 5726 5726 5727 5727 5726 5725 5724 5723 5722 5722
5754 5754 5755 5755 5753 5752 5751 5750 5749 5748 5747 5746 5746 5745 5744 5742 5741 5741 5739 5738 5738 5737 5736 5734 5733 5732 5731 5729 5727 5726 5724 5723 5722 5722 5722 5723 5723 5722 5721 5720 5719 5718 5718
5751 5752 5753 5753 5752 5751 5750 5749 5748 5747 5745 5745 5744 5743 5742 5741 5739 5738 5737 5735 5734 5733 5732 5731 5729 5728 5726 5725 5723 5722 5720 5719 5718 5718 5718 5718 5718 5718 5717 5716 5715 5714 5714
5749 5750 5752 5752 5751 5749 5748 5747 5746 5745 5744 5742 5742 5740 5739 5738 5737 5735 5734 5732 5730 5729 5729 5727 5725 5724 5722 5720 5718 5717 5716 5715 5714 5713 5713 5713 5713 5713 5713 5712 5711 5710 5710
5748 5749 5749 5749 5748 5747 5746 5744 5744 5742 5741 5740 5739 5737 5737 5736 5734 5732 5730 5728 5727 5726 5725 5724 5722 5720 5718 5716 5713 5712 5711 5710 5710 5709 5708 5708 5708 5707 5707 5707 5706 5706 5706
5747 5746 5747 5748 5746 5744 5743 5742 5740 5739 5738 5736 5735 5734 5733 5732 5731 5729 5727 5725 5724 5723 5721 5720 5717 5714 5712 5710 5708 5707 5707 5706 5705 5704 5704 5703 5702 5702 5702 5702 5701 5701 5701
5745 5744 5743 5743 5743 5741 5740 5739 5737 5735 5734 5733 5732 5731 5729 5729 5727 5726 5724 5722 5721 5719 5718 5716 5713 5710 5707 5705 5704 5702 5702 5701 5701 5700 5699 5698 5697 5697 5696 5696 5696 5696 5696
5742 5741 5740 5739 5739 5737 5735 5734 5732 5730 5730 5729 5728 5727 5726 5725 5724 5722 5720 5719 5718 5716 5713 5711 5708 5706 5703 5701 5700 5697 5696 5696 5696 5695 5694 5693 5692 5692 5691 5691 5691 5690 5691
5738 5737 5736 5735 5734 5733 5730 5728 5725 5724 5724 5724 5724 5723 5722 5722 5720 5719 5717 5715 5714 5712 5709 5707 5704 5701 5698 5697 5693 5689 5690 5691 5690 5689 5689 5688 5687 5687 5686 5686 5685 5685 5685
5735 5734 5733 5732 5732 5730 5729 5726 5724 5723 5721 5721 5720 5720 5719 5718 5717 5716 5714 5712 5710 5708 5705 5703 5701 5696 5694 5693 5689 5683 5678 5679 5682 5684 5683 5683 5682 5681 5681 5680 5680 5680 5680
5731 5732 5732 5730 5729 5728 5726 5724 5721 5718 5717 5715 5715 5714 5715 5715 5714 5712 5710 5708 5707 5705 5702 5700 5698 5695 5690 5689 5689 5683 5675 5670 5672 5675 5677 5677 5676 5676 5675 5675 5674 5674 5674
5729 5730 5730 5728 5726 5725 5723 5720 5716 5712 5710 5710 5711 5711 5711 5711 5710 5708 5707 5705 5703 5701 5699 5697 5695 5693 5690 5685 5685 5684 5682 5678 5670 5667 5669 5670 5671 5670 5670 5670 5669 5669 5669
5727 5727 5726 5724 5722 5721 5720 5717 5714 5711 5709 5708 5708 5707 5707 5707 5706 5705 5703 5702 5700 5698 5696 5695 5693 5691 5688 5685 5682 5681 5678 5675 5673 5667 5662 5663 5664 5664 5664 5664 5664 5664 5664
5724 5723 5722 5720 5718 5717 5715 5714 5712 5709 5707 5705 5704 5703 5702 5702 5702 5701 5700 5698 5696 5695 5693 5692 5690 5688 5686 5684 5682 5680 5677 5673 5670 5666 5661 5658 5657 5658 5659 5659 5659 5659 5659